Location: Hickory_CSC
(35.7330°N, 81.3330°W)
Time: 11:57:34
(UTC-04:00)

Cosmos 1356 Rocket - Visible Passes

Search period start: 28 April 2015 00:00
Search period end: 08 May 2015 00:00
Orbit: 547 x 603 km, 81.2° (Epoch: 28 April)

Date Brightness Start Highest point End Pass type
(mag) Time Alt. Az. Time Alt. Az. Time Alt. Az.
28 Apr 6.6 00:06:09 10° N 00:06:16 11° N 00:06:16 11° N visible
29 Apr 6.5 00:09:31 10° N 00:09:55 12° N 00:09:55 12° N visible
30 Apr 6.4 00:12:58 10° N 00:13:34 14° N 00:13:34 14° N visible
01 May 6.4 00:16:30 10° N 00:17:13 15° N 00:17:13 15° N visible
02 May 6.4 00:20:06 10° NNW 00:20:53 15° NNW 00:20:53 15° NNW visible
03 May 6.4 00:23:47 10° NNW 00:24:33 15° NNW 00:24:33 15° NNW visible
03 May 6.0 22:51:10 10° NNE 22:52:00 13° NE 22:52:00 13° NE visible
04 May 6.4 00:27:33 10° NNW 00:28:15 14° NW 00:28:15 14° NW visible
04 May 5.7 22:54:15 10° NNE 22:55:42 17° NE 22:55:42 17° NE visible
05 May 6.5 00:31:28 10° NW 00:31:56 12° NW 00:31:56 12° NW visible
05 May 5.4 22:57:29 10° N 22:59:24 22° NNE 22:59:24 22° NNE visible
06 May 6.6 00:35:34 10° NW 00:35:39 10° NW 00:35:39 10° NW visible
06 May 5.1 23:00:50 10° N 23:03:07 28° NNE 23:03:07 28° NNE visible
07 May 4.8 23:04:15 10° N 23:06:51 35° N 23:06:51 35° N visible
